Location: Palmerston North
(40.3500°S, 175.6170°E)
Time: 08:52:46
(UTC+13:00)

SL-08 R/B - Pass Details

Date: 24 January 2019
Orbit: 946 x 994 km, 83.0° (Epoch: 17 February)

Event Time Altitude Azimuth Distance (km) Brightness Sun altitude
Exits shadow 22:39:26 16° 355° (N) 2,244 6.0 -18.5°
Maximum altitude 22:44:24 90° 66° (ENE) 967 4.4 -19.1°
Drops below altitude 10° 22:50:39 10° 173° (S) 2,724 7.4 -19.9°
Sets 22:53:11 0° 172° (S) 3,683 8.2 -20.2°
